Time,TemperatureF,DewpointF,PressureIn,WindDirection,WindDirectionDegrees,WindSpeedMPH,WindSpeedGustMPH,Humidity,HourlyPrecipIn,Conditions,Clouds,dailyrainin,SoftwareType,DateUTC
2013-09-09 00:01:00,49.3,45.6,30.10,ESE,113,0.0,0.0,87,0.00,,,0.00,Wunderground v.1.15,2013-09-09 04:01:00,
2013-09-09 00:02:00,49.2,45.5,30.10,ESE,113,0.0,0.0,87,0.00,,,0.00,Wunderground v.1.15,2013-09-09 04:02:00,
2013-09-09 00:04:00,49.2,45.5,30.10,ESE,113,0.0,0.0,87,0.00,,,0.00,Wunderground v.1.15,2013-09-09 04:04:00,
2013-09-09 00:05:00,49.1,45.4,30.10,ESE,113,0.0,0.0,87,0.00,,,0.00,Wunderground v.1.15,2013-09-09 04:05:00,
2013-09-09 00:08:00,49.1,45.4,30.10,ESE,113,0.0,0.0,87,0.00,,,0.00,Wunderground v.1.15,2013-09-09 04:08:00,
2013-09-09 00:13:00,49.0,45.3,30.10,ESE,113,0.0,0.0,87,0.00,,,0.00,Wunderground v.1.15,2013-09-09 04:13:00,
2013-09-09 00:18:00,48.9,45.2,30.10,ESE,113,0.0,0.0,87,0.00,,,0.00,Wunderground v.1.15,2013-09-09 04:18:00,
2013-09-09 00:19:00,48.9,45.2,30.10,ESE,113,0.0,0.0,87,0.00,,,0.00,Wunderground v.1.15,2013-09-09 04:19:00,
2013-09-09 00:24:00,48.8,45.4,30.10,ESE,113,0.0,0.0,88,0.00,,,0.00,Wunderground v.1.15,2013-09-09 04:24:00,
2013-09-09 00:30:00,48.8,45.4,30.10,ESE,112,0.0,0.0,88,0.00,,,0.00,Wunderground v.1.15,2013-09-09 04:30:00,
2013-09-09 00:35:00,48.9,45.5,30.11,ESE,111,0.0,0.0,88,0.00,,,0.00,Wunderground v.1.15,2013-09-09 04:35:00,
2013-09-09 00:40:00,49.5,45.8,30.11,ESE,120,0.0,1.0,87,0.00,,,0.00,Wunderground v.1.15,2013-09-09 04:40:00,
2013-09-09 00:46:00,49.9,45.9,30.11,ESE,115,1.0,1.0,86,0.00,,,0.00,Wunderground v.1.15,2013-09-09 04:46:00,
2013-09-09 00:51:00,49.9,45.6,30.11,ESE,114,1.0,1.0,85,0.00,,,0.00,Wunderground v.1.15,2013-09-09 04:51:00,
2013-09-09 00:56:00,50.0,45.7,30.11,ESE,115,0.0,1.0,85,0.00,,,0.00,Wunderground v.1.15,2013-09-09 04:56:00,
2013-09-09 01:01:00,49.7,45.4,30.12,ESE,114,0.0,0.0,85,0.00,,,0.00,Wunderground v.1.15,2013-09-09 05:01:00,
2013-09-09 01:07:00,49.5,45.2,30.12,ESE,120,0.0,1.0,85,0.00,,,0.00,Wunderground v.1.15,2013-09-09 05:07:00,
2013-09-09 01:13:00,49.8,45.2,30.12,ESE,116,1.0,1.0,84,0.00,,,0.00,Wunderground v.1.15,2013-09-09 05:13:00,
2013-09-09 01:18:00,49.9,44.9,30.12,SE,125,1.0,1.0,83,0.00,,,0.00,Wunderground v.1.15,2013-09-09 05:18:00,
2013-09-09 01:23:00,49.9,44.9,30.12,ESE,123,0.0,2.0,83,0.00,,,0.00,Wunderground v.1.15,2013-09-09 05:23:00,
2013-09-09 01:29:00,50.1,44.8,30.12,SE,129,1.0,2.0,82,0.00,,,0.00,Wunderground v.1.15,2013-09-09 05:29:00,
2013-09-09 01:34:00,50.3,44.7,30.13,SE,134,1.0,2.0,81,0.00,,,0.00,Wunderground v.1.15,2013-09-09 05:34:00,
2013-09-09 01:40:00,50.4,44.8,30.13,SE,126,1.0,2.0,81,0.00,,,0.00,Wunderground v.1.15,2013-09-09 05:40:00,
2013-09-09 01:46:00,50.4,44.8,30.13,ESE,117,1.0,1.0,81,0.00,,,0.00,Wunderground v.1.15,2013-09-09 05:46:00,
2013-09-09 01:51:00,50.2,44.6,30.13,ESE,112,0.0,0.0,81,0.00,,,0.00,Wunderground v.1.15,2013-09-09 05:51:00,
2013-09-09 01:56:00,50.2,44.6,30.12,ESE,112,0.0,1.0,81,0.00,,,0.00,Wunderground v.1.15,2013-09-09 05:56:00,
2013-09-09 02:01:00,50.0,44.4,30.13,ESE,115,0.0,1.0,81,0.00,,,0.00,Wunderground v.1.15,2013-09-09 06:01:00,
2013-09-09 02:07:00,50.3,44.7,30.13,ESE,122,0.0,1.0,81,0.00,,,0.00,Wunderground v.1.15,2013-09-09 06:07:00,
2013-09-09 02:13:00,50.0,44.4,30.13,ESE,123,0.0,0.0,81,0.00,,,0.00,Wunderground v.1.15,2013-09-09 06:13:00,
2013-09-09 02:18:00,49.7,44.4,30.13,SSE,166,0.0,4.0,82,0.00,,,0.00,Wunderground v.1.15,2013-09-09 06:18:00,
2013-09-09 02:23:00,49.5,44.2,30.13,SE,129,0.0,1.0,82,0.00,,,0.00,Wunderground v.1.15,2013-09-09 06:23:00,
2013-09-09 02:28:00,49.6,44.3,30.13,SE,124,0.0,1.0,82,0.00,,,0.00,Wunderground v.1.15,2013-09-09 06:28:00,
2013-09-09 02:33:00,49.1,44.5,30.14,West,278,0.0,0.0,84,0.00,,,0.00,Wunderground v.1.15,2013-09-09 06:33:00,
2013-09-09 02:39:00,48.5,44.2,30.14,West,278,0.0,0.0,85,0.00,,,0.00,Wunderground v.1.15,2013-09-09 06:39:00,
2013-09-09 02:44:00,48.1,44.1,30.14,West,278,0.0,0.0,86,0.00,,,0.00,Wunderground v.1.15,2013-09-09 06:44:00,
2013-09-09 02:49:00,47.8,43.8,30.14,West,278,0.0,0.0,86,0.00,,,0.00,Wunderground v.1.15,2013-09-09 06:49:00,
2013-09-09 02:55:00,47.5,43.8,30.13,West,278,0.0,0.0,87,0.00,,,0.00,Wunderground v.1.15,2013-09-09 06:55:00,
2013-09-09 03:00:00,47.1,43.7,30.13,West,278,0.0,0.0,88,0.00,,,0.00,Wunderground v.1.15,2013-09-09 07:00:00,
2013-09-09 03:06:00,46.8,43.7,30.13,West,278,0.0,0.0,89,0.00,,,0.00,Wunderground v.1.15,2013-09-09 07:06:00,
2013-09-09 03:11:00,46.5,43.4,30.13,West,278,0.0,0.0,89,0.00,,,0.00,Wunderground v.1.15,2013-09-09 07:11:00,
2013-09-09 03:17:00,46.3,43.5,30.14,West,278,0.0,0.0,90,0.00,,,0.00,Wunderground v.1.15,2013-09-09 07:17:00,
2013-09-09 03:22:00,46.3,43.5,30.14,West,278,0.0,0.0,90,0.00,,,0.00,Wunderground v.1.15,2013-09-09 07:22:00,
2013-09-09 03:27:00,46.2,43.4,30.14,West,278,0.0,0.0,90,0.00,,,0.00,Wunderground v.1.15,2013-09-09 07:27:00,
2013-09-09 03:32:00,46.4,43.6,30.14,West,278,0.0,0.0,90,0.00,,,0.00,Wunderground v.1.15,2013-09-09 07:32:00,
2013-09-09 03:38:00,46.3,43.5,30.14,West,278,0.0,0.0,90,0.00,,,0.00,Wunderground v.1.15,2013-09-09 07:38:00,
2013-09-09 03:43:00,46.2,43.7,30.15,West,278,0.0,0.0,91,0.00,,,0.00,Wunderground v.1.15,2013-09-09 07:43:00,
2013-09-09 03:49:00,46.2,43.7,30.15,West,278,0.0,0.0,91,0.00,,,0.00,Wunderground v.1.15,2013-09-09 07:49:00,
2013-09-09 03:54:00,46.0,43.5,30.15,West,278,0.0,0.0,91,0.00,,,0.00,Wunderground v.1.15,2013-09-09 07:54:00,
2013-09-09 03:59:00,45.9,43.4,30.15,West,278,0.0,0.0,91,0.00,,,0.00,Wunderground v.1.15,2013-09-09 07:59:00,
2013-09-09 04:05:00,45.9,43.4,30.14,West,278,0.0,0.0,91,0.00,,,0.00,Wunderground v.1.15,2013-09-09 08:05:00,
2013-09-09 04:10:00,45.8,43.0,30.15,West,278,0.0,0.0,90,0.00,,,0.00,Wunderground v.1.15,2013-09-09 08:10:00,
2013-09-09 04:15:00,45.7,43.2,30.15,West,278,0.0,0.0,91,0.00,,,0.00,Wunderground v.1.15,2013-09-09 08:15:00,
2013-09-09 04:21:00,45.5,43.0,30.15,West,278,0.0,0.0,91,0.00,,,0.00,Wunderground v.1.15,2013-09-09 08:21:00,
2013-09-09 04:26:00,45.6,43.1,30.15,West,278,0.0,0.0,91,0.00,,,0.00,Wunderground v.1.15,2013-09-09 08:26:00,
2013-09-09 04:32:00,45.4,42.9,30.15,West,278,0.0,0.0,91,0.00,,,0.00,Wunderground v.1.15,2013-09-09 08:32:00,
2013-09-09 04:37:00,45.4,42.9,30.15,West,278,0.0,0.0,91,0.00,,,0.00,Wunderground v.1.15,2013-09-09 08:37:00,
2013-09-09 04:43:00,45.5,43.0,30.15,West,278,0.0,0.0,91,0.00,,,0.00,Wunderground v.1.15,2013-09-09 08:43:00,
2013-09-09 04:48:00,45.5,43.0,30.16,West,278,0.0,0.0,91,0.00,,,0.00,Wunderground v.1.15,2013-09-09 08:48:00,
2013-09-09 04:53:00,45.6,43.1,30.15,NE,41,0.0,0.0,91,0.00,,,0.00,Wunderground v.1.15,2013-09-09 08:53:00,
2013-09-09 04:59:00,46.0,43.2,30.15,NE,41,0.0,0.0,90,0.00,,,0.00,Wunderground v.1.15,2013-09-09 08:59:00,
2013-09-09 05:05:00,45.9,43.1,30.15,NE,41,0.0,0.0,90,0.00,,,0.00,Wunderground v.1.15,2013-09-09 09:05:00,
2013-09-09 05:10:00,45.7,42.9,30.15,NE,41,0.0,0.0,90,0.00,,,0.00,Wunderground v.1.15,2013-09-09 09:10:00,
2013-09-09 05:16:00,45.5,42.7,30.15,NE,41,0.0,1.0,90,0.00,,,0.00,Wunderground v.1.15,2013-09-09 09:16:00,
2013-09-09 05:21:00,45.7,42.9,30.15,East,82,0.0,0.0,90,0.00,,,0.00,Wunderground v.1.15,2013-09-09 09:21:00,
2013-09-09 05:26:00,45.6,42.8,30.16,East,82,0.0,0.0,90,0.00,,,0.00,Wunderground v.1.15,2013-09-09 09:26:00,
2013-09-09 05:32:00,45.7,42.9,30.16,East,81,0.0,0.0,90,0.00,,,0.00,Wunderground v.1.15,2013-09-09 09:32:00,
2013-09-09 05:37:00,45.7,42.6,30.16,East,81,0.0,0.0,89,0.00,,,0.00,Wunderground v.1.15,2013-09-09 09:37:00,
2013-09-09 05:42:00,45.4,42.6,30.16,East,81,0.0,0.0,90,0.00,,,0.00,Wunderground v.1.15,2013-09-09 09:42:00,
2013-09-09 05:47:00,45.6,42.8,30.16,East,91,0.0,1.0,90,0.00,,,0.00,Wunderground v.1.15,2013-09-09 09:47:00,
2013-09-09 05:53:00,45.6,42.8,30.16,East,79,1.0,1.0,90,0.00,,,0.00,Wunderground v.1.15,2013-09-09 09:53:00,
2013-09-09 05:59:00,45.6,42.8,30.15,East,84,1.0,1.0,90,0.00,,,0.00,Wunderground v.1.15,2013-09-09 09:59:00,
2013-09-09 06:04:00,45.3,42.5,30.15,East,79,0.0,0.0,90,0.00,,,0.00,Wunderground v.1.15,2013-09-09 10:04:00,
2013-09-09 06:10:00,45.1,42.6,30.15,East,79,0.0,0.0,91,0.00,,,0.00,Wunderground v.1.15,2013-09-09 10:10:00,
2013-09-09 06:15:00,44.9,42.4,30.15,East,79,0.0,0.0,91,0.00,,,0.00,Wunderground v.1.15,2013-09-09 10:15:00,
2013-09-09 06:20:00,44.7,42.2,30.15,East,79,0.0,0.0,91,0.00,,,0.00,Wunderground v.1.15,2013-09-09 10:20:00,
2013-09-09 06:25:00,44.4,42.2,30.15,East,79,0.0,0.0,92,0.00,,,0.00,Wunderground v.1.15,2013-09-09 10:25:00,
2013-09-09 06:31:00,44.3,42.1,30.15,East,79,0.0,0.0,92,0.00,,,0.00,Wunderground v.1.15,2013-09-09 10:31:00,
2013-09-09 06:36:00,44.3,42.1,30.15,East,79,0.0,0.0,92,0.00,,,0.00,Wunderground v.1.15,2013-09-09 10:36:00,
2013-09-09 06:42:00,44.3,42.1,30.16,East,79,0.0,0.0,92,0.00,,,0.00,Wunderground v.1.15,2013-09-09 10:42:00,
2013-09-09 06:47:00,44.5,42.6,30.16,East,79,0.0,0.0,93,0.00,,,0.00,Wunderground v.1.15,2013-09-09 10:47:00,
2013-09-09 06:52:00,44.6,42.4,30.16,East,79,0.0,0.0,92,0.00,,,0.00,Wunderground v.1.15,2013-09-09 10:52:00,
2013-09-09 06:57:00,44.7,42.5,30.16,East,79,0.0,0.0,92,0.00,,,0.00,Wunderground v.1.15,2013-09-09 10:57:00,
2013-09-09 07:03:00,44.8,42.6,30.16,East,79,0.0,0.0,92,0.00,,,0.00,Wunderground v.1.15,2013-09-09 11:03:00,
2013-09-09 07:08:00,44.9,42.7,30.16,East,79,0.0,0.0,92,0.00,,,0.00,Wunderground v.1.15,2013-09-09 11:08:00,
2013-09-09 07:13:00,45.2,43.0,30.16,East,79,0.0,0.0,92,0.00,,,0.00,Wunderground v.1.15,2013-09-09 11:13:00,
2013-09-09 07:18:00,45.6,43.4,30.16,SE,133,0.0,0.0,92,0.00,,,0.00,Wunderground v.1.15,2013-09-09 11:18:00,
2013-09-09 07:24:00,46.5,44.3,30.16,ESE,114,0.0,1.0,92,0.00,,,0.00,Wunderground v.1.15,2013-09-09 11:24:00,
2013-09-09 07:29:00,47.4,44.0,30.16,SE,134,1.0,2.0,88,0.00,,,0.00,Wunderground v.1.15,2013-09-09 11:29:00,
2013-09-09 07:34:00,48.0,44.3,30.16,ESE,121,1.0,1.0,87,0.00,,,0.00,Wunderground v.1.15,2013-09-09 11:34:00,
2013-09-09 07:40:00,48.1,44.4,30.16,ESE,120,0.0,1.0,87,0.00,,,0.00,Wunderground v.1.15,2013-09-09 11:40:00,
2013-09-09 07:45:00,48.3,44.6,30.16,ESE,120,0.0,0.0,87,0.00,,,0.00,Wunderground v.1.15,2013-09-09 11:45:00,
2013-09-09 07:50:00,48.5,44.8,30.16,ESE,120,0.0,0.0,87,0.00,,,0.00,Wunderground v.1.15,2013-09-09 11:50:00,
2013-09-09 07:55:00,48.9,45.2,30.16,ESE,108,0.0,1.0,87,0.00,,,0.00,Wunderground v.1.15,2013-09-09 11:55:00,
2013-09-09 08:01:00,49.6,45.3,30.17,ESE,109,0.0,0.0,85,0.00,,,0.00,Wunderground v.1.15,2013-09-09 12:01:00,
2013-09-09 08:07:00,50.3,45.6,30.16,ESE,105,0.0,1.0,84,0.00,,,0.00,Wunderground v.1.15,2013-09-09 12:07:00,
2013-09-09 08:12:00,50.6,45.9,30.16,ESE,115,0.0,1.0,84,0.00,,,0.00,Wunderground v.1.15,2013-09-09 12:12:00,
2013-09-09 08:18:00,50.9,46.6,30.16,East,98,0.0,1.0,85,0.00,,,0.00,Wunderground v.1.15,2013-09-09 12:18:00,
2013-09-09 08:24:00,51.2,46.8,30.16,East,97,0.0,0.0,85,0.00,,,0.00,Wunderground v.1.15,2013-09-09 12:24:00,
2013-09-09 08:29:00,51.9,47.2,30.16,ESE,105,0.0,0.0,84,0.00,,,0.00,Wunderground v.1.15,2013-09-09 12:29:00,
2013-09-09 08:34:00,52.7,47.4,30.16,SSE,158,0.0,0.0,82,0.00,,,0.00,Wunderground v.1.15,2013-09-09 12:34:00,
2013-09-09 08:39:00,53.5,46.5,30.16,ESE,116,1.0,2.0,77,0.00,,,0.00,Wunderground v.1.15,2013-09-09 12:39:00,
2013-09-09 08:45:00,54.2,46.4,30.17,ESE,123,1.0,1.0,75,0.00,,,0.00,Wunderground v.1.15,2013-09-09 12:45:00,
2013-09-09 08:50:00,54.9,47.1,30.17,SE,131,0.0,1.0,75,0.00,,,0.00,Wunderground v.1.15,2013-09-09 12:50:00,
2013-09-09 08:56:00,55.7,46.4,30.16,ESE,109,0.0,1.0,71,0.00,,,0.00,Wunderground v.1.15,2013-09-09 12:56:00,
2013-09-09 09:01:00,56.2,46.5,30.16,ESE,115,0.0,0.0,70,0.00,,,0.00,Wunderground v.1.15,2013-09-09 13:01:00,
2013-09-09 09:07:00,56.5,46.4,30.16,ESE,123,0.0,0.0,69,0.00,,,0.00,Wunderground v.1.15,2013-09-09 13:07:00,
2013-09-09 09:12:00,57.0,46.5,30.16,ESE,105,0.0,0.0,68,0.00,,,0.00,Wunderground v.1.15,2013-09-09 13:12:00,
2013-09-09 09:17:00,57.6,46.7,30.16,ESE,117,0.0,1.0,67,0.00,,,0.00,Wunderground v.1.15,2013-09-09 13:17:00,
2013-09-09 09:23:00,58.0,46.3,30.16,ESE,105,1.0,3.0,65,0.00,,,0.00,Wunderground v.1.15,2013-09-09 13:23:00,
2013-09-09 09:28:00,58.5,46.4,30.16,East,79,1.0,3.0,64,0.00,,,0.00,Wunderground v.1.15,2013-09-09 13:28:00,
2013-09-09 09:34:00,58.9,45.9,30.16,East,89,2.0,2.0,62,0.00,,,0.00,Wunderground v.1.15,2013-09-09 13:34:00,
2013-09-09 09:39:00,59.1,46.5,30.16,ESE,105,2.0,4.0,63,0.00,,,0.00,Wunderground v.1.15,2013-09-09 13:39:00,
2013-09-09 09:45:00,59.2,46.2,30.16,SE,126,2.0,5.0,62,0.00,,,0.00,Wunderground v.1.15,2013-09-09 13:45:00,
2013-09-09 09:51:00,59.3,45.8,30.16,ESE,116,2.0,3.0,61,0.00,,,0.00,Wunderground v.1.15,2013-09-09 13:51:00,
2013-09-09 09:56:00,59.3,45.4,30.16,East,90,3.0,4.0,60,0.00,,,0.00,Wunderground v.1.15,2013-09-09 13:56:00,
2013-09-09 10:02:00,59.6,45.2,30.16,ESE,105,3.0,5.0,59,0.00,,,0.00,Wunderground v.1.15,2013-09-09 14:02:00,
2013-09-09 10:08:00,59.7,44.9,30.16,ESE,108,4.0,6.0,58,0.00,,,0.00,Wunderground v.1.15,2013-09-09 14:08:00,
2013-09-09 10:14:00,59.8,45.0,30.16,East,98,5.0,5.0,58,0.00,,,0.00,Wunderground v.1.15,2013-09-09 14:14:00,
2013-09-09 10:19:00,60.0,45.6,30.16,East,96,5.0,5.0,59,0.00,,,0.00,Wunderground v.1.15,2013-09-09 14:19:00,
2013-09-09 10:24:00,60.1,44.8,30.16,SE,126,4.0,8.0,57,0.00,,,0.00,Wunderground v.1.15,2013-09-09 14:24:00,
2013-09-09 10:30:00,60.2,45.4,30.16,East,98,4.0,8.0,58,0.00,,,0.00,Wunderground v.1.15,2013-09-09 14:30:00,
2013-09-09 10:35:00,60.5,46.1,30.16,ESE,115,4.0,5.0,59,0.00,,,0.00,Wunderground v.1.15,2013-09-09 14:35:00,
2013-09-09 10:40:00,61.0,45.7,30.16,SSW,207,3.0,5.0,57,0.00,,,0.00,Wunderground v.1.15,2013-09-09 14:40:00,
2013-09-09 10:46:00,61.1,45.7,30.16,ESE,112,3.0,5.0,57,0.00,,,0.00,Wunderground v.1.15,2013-09-09 14:46:00,
2013-09-09 10:51:00,61.2,45.4,30.16,East,94,4.0,4.0,56,0.00,,,0.00,Wunderground v.1.15,2013-09-09 14:51:00,
2013-09-09 10:56:00,61.6,45.3,30.16,East,91,4.0,5.0,55,0.00,,,0.00,Wunderground v.1.15,2013-09-09 14:56:00,
2013-09-09 11:01:00,62.0,45.6,30.17,ESE,108,3.0,4.0,55,0.00,,,0.00,Wunderground v.1.15,2013-09-09 15:01:00,
2013-09-09 11:07:00,62.4,45.5,30.16,ESE,112,3.0,7.0,54,0.00,,,0.00,Wunderground v.1.15,2013-09-09 15:07:00,
2013-09-09 11:12:00,62.7,45.8,30.16,ESE,113,3.0,4.0,54,0.00,,,0.00,Wunderground v.1.15,2013-09-09 15:12:00,
2013-09-09 11:17:00,63.1,45.2,30.16,ESE,113,3.0,4.0,52,0.00,,,0.00,Wunderground v.1.15,2013-09-09 15:17:00,
2013-09-09 11:22:00,63.2,45.3,30.15,ESE,113,4.0,4.0,52,0.00,,,0.00,Wunderground v.1.15,2013-09-09 15:22:00,
2013-09-09 11:28:00,64.1,45.6,30.15,ENE,72,3.0,4.0,51,0.00,,,0.00,Wunderground v.1.15,2013-09-09 15:28:00,
2013-09-09 11:33:00,64.4,44.3,30.14,NNE,12,3.0,5.0,48,0.00,,,0.00,Wunderground v.1.15,2013-09-09 15:33:00,
2013-09-09 11:38:00,64.9,45.3,30.14,SE,132,3.0,7.0,49,0.00,,,0.00,Wunderground v.1.15,2013-09-09 15:38:00,
2013-09-09 11:44:00,65.4,44.6,30.14,SE,129,3.0,7.0,47,0.00,,,0.00,Wunderground v.1.15,2013-09-09 15:44:00,
2013-09-09 11:49:00,66.1,45.3,30.13,SE,134,3.0,7.0,47,0.00,,,0.00,Wunderground v.1.15,2013-09-09 15:49:00,
2013-09-09 11:55:00,66.5,44.5,30.13,ESE,104,3.0,4.0,45,0.00,,,0.00,Wunderground v.1.15,2013-09-09 15:55:00,
2013-09-09 12:01:00,66.7,44.1,30.13,East,91,3.0,3.0,44,0.00,,,0.00,Wunderground v.1.15,2013-09-09 16:01:00,
2013-09-09 12:07:00,67.4,43.5,30.13,SE,129,3.0,6.0,42,0.00,,,0.00,Wunderground v.1.15,2013-09-09 16:07:00,
2013-09-09 12:13:00,67.9,43.3,30.12,ESE,105,4.0,5.0,41,0.00,,,0.00,Wunderground v.1.15,2013-09-09 16:13:00,
2013-09-09 12:18:00,68.3,43.0,30.12,West,263,3.0,8.0,40,0.00,,,0.00,Wunderground v.1.15,2013-09-09 16:18:00,
2013-09-09 12:23:00,68.3,44.3,30.12,West,269,3.0,7.0,42,0.00,,,0.00,Wunderground v.1.15,2013-09-09 16:23:00,
2013-09-09 12:28:00,68.8,45.4,30.11,SE,124,3.0,7.0,43,0.00,,,0.00,Wunderground v.1.15,2013-09-09 16:28:00,
2013-09-09 12:33:00,69.7,44.9,30.11,East,85,2.0,3.0,41,0.00,,,0.00,Wunderground v.1.15,2013-09-09 16:33:00,
2013-09-09 12:40:00,69.6,44.2,30.11,WSW,249,3.0,7.0,40,0.00,,,0.00,Wunderground v.1.15,2013-09-09 16:40:00,
2013-09-09 12:45:00,69.6,44.8,30.11,SSE,153,4.0,6.0,41,0.00,,,0.00,Wunderground v.1.15,2013-09-09 16:45:00,
2013-09-09 12:51:00,69.8,45.0,30.10,ESE,113,3.0,3.0,41,0.00,,,0.00,Wunderground v.1.15,2013-09-09 16:51:00,
2013-09-09 12:56:00,70.3,44.8,30.10,SE,124,3.0,6.0,40,0.00,,,0.00,Wunderground v.1.15,2013-09-09 16:56:00,
2013-09-09 13:01:00,70.9,44.7,30.10,SE,146,3.0,3.0,39,0.00,,,0.00,Wunderground v.1.15,2013-09-09 17:01:00,
2013-09-09 13:07:00,71.1,45.5,30.10,East,88,2.0,5.0,40,0.00,,,0.00,Wunderground v.1.15,2013-09-09 17:07:00,
2013-09-09 13:12:00,71.9,46.3,30.10,ESE,107,1.0,8.0,40,0.00,,,0.00,Wunderground v.1.15,2013-09-09 17:12:00,
2013-09-09 13:17:00,71.9,45.6,30.10,ESE,105,2.0,8.0,39,0.00,,,0.00,Wunderground v.1.15,2013-09-09 17:17:00,
2013-09-09 13:23:00,72.4,46.7,30.10,ESE,108,2.0,3.0,40,0.00,,,0.00,Wunderground v.1.15,2013-09-09 17:23:00,
2013-09-09 13:28:00,72.9,45.1,30.11,SW,227,2.0,6.0,37,0.00,,,0.00,Wunderground v.1.15,2013-09-09 17:28:00,
2013-09-09 13:33:00,72.6,46.2,30.10,ESE,103,2.0,5.0,39,0.00,,,0.00,Wunderground v.1.15,2013-09-09 17:33:00,
2013-09-09 13:39:00,72.0,45.7,30.10,South,169,2.0,5.0,39,0.00,,,0.00,Wunderground v.1.15,2013-09-09 17:39:00,
2013-09-09 13:44:00,72.6,46.2,30.10,SSE,162,2.0,3.0,39,0.00,,,0.00,Wunderground v.1.15,2013-09-09 17:44:00,
2013-09-09 13:50:00,73.0,46.6,30.10,West,278,2.0,7.0,39,0.00,,,0.00,Wunderground v.1.15,2013-09-09 17:50:00,
2013-09-09 13:55:00,73.2,46.8,30.10,ESE,106,2.0,5.0,39,0.00,,,0.00,Wunderground v.1.15,2013-09-09 17:55:00,
2013-09-09 14:01:00,73.2,48.1,30.10,South,186,3.0,3.0,41,0.00,,,0.00,Wunderground v.1.15,2013-09-09 18:01:00,
2013-09-09 14:07:00,74.0,48.8,30.09,SE,124,2.0,4.0,41,0.00,,,0.00,Wunderground v.1.15,2013-09-09 18:07:00,
2013-09-09 14:12:00,74.1,48.9,30.09,SSE,166,2.0,2.0,41,0.00,,,0.00,Wunderground v.1.15,2013-09-09 18:12:00,
2013-09-09 14:18:00,74.1,48.2,30.09,ESE,113,2.0,5.0,40,0.00,,,0.00,Wunderground v.1.15,2013-09-09 18:18:00,
2013-09-09 14:23:00,74.3,48.4,30.09,South,179,2.0,6.0,40,0.00,,,0.00,Wunderground v.1.15,2013-09-09 18:23:00,
2013-09-09 14:29:00,74.3,49.1,30.09,West,276,2.0,6.0,41,0.00,,,0.00,Wunderground v.1.15,2013-09-09 18:29:00,
2013-09-09 14:35:00,74.1,50.2,30.08,ESE,115,3.0,3.0,43,0.00,,,0.00,Wunderground v.1.15,2013-09-09 18:35:00,
2013-09-09 14:40:00,74.3,50.4,30.08,SE,129,3.0,4.0,43,0.00,,,0.00,Wunderground v.1.15,2013-09-09 18:40:00,
2013-09-09 14:45:00,74.6,50.6,30.07,ESE,113,3.0,4.0,43,0.00,,,0.00,Wunderground v.1.15,2013-09-09 18:45:00,
2013-09-09 14:51:00,74.7,50.7,30.08,SE,145,2.0,2.0,43,0.00,,,0.00,Wunderground v.1.15,2013-09-09 18:51:00,
2013-09-09 14:56:00,75.3,51.3,30.07,ESE,121,2.0,3.0,43,0.00,,,0.00,Wunderground v.1.15,2013-09-09 18:56:00,
2013-09-09 15:01:00,75.5,51.4,30.06,ESE,113,2.0,2.0,43,0.00,,,0.00,Wunderground v.1.15,2013-09-09 19:01:00,
2013-09-09 15:06:00,74.9,52.1,30.06,SSW,213,3.0,6.0,45,0.00,,,0.00,Wunderground v.1.15,2013-09-09 19:06:00,
2013-09-09 15:12:00,74.9,53.3,30.06,South,181,2.0,2.0,47,0.00,,,0.00,Wunderground v.1.15,2013-09-09 19:12:00,
2013-09-09 15:18:00,75.1,52.9,30.05,ESE,120,2.0,7.0,46,0.00,,,0.00,Wunderground v.1.15,2013-09-09 19:18:00,
2013-09-09 15:23:00,75.7,54.0,30.05,SSW,201,2.0,2.0,47,0.00,,,0.00,Wunderground v.1.15,2013-09-09 19:23:00,
2013-09-09 15:29:00,75.9,54.2,30.05,SE,126,2.0,6.0,47,0.00,,,0.00,Wunderground v.1.15,2013-09-09 19:29:00,
2013-09-09 15:34:00,76.1,53.8,30.05,ESE,110,2.0,4.0,46,0.00,,,0.00,Wunderground v.1.15,2013-09-09 19:34:00,
2013-09-09 15:39:00,75.9,54.8,30.05,ESE,121,2.0,5.0,48,0.00,,,0.00,Wunderground v.1.15,2013-09-09 19:39:00,
2013-09-09 15:45:00,76.6,55.4,30.05,West,262,2.0,4.0,48,0.00,,,0.00,Wunderground v.1.15,2013-09-09 19:45:00,
2013-09-09 15:50:00,76.5,55.3,30.04,ESE,112,2.0,4.0,48,0.00,,,0.00,Wunderground v.1.15,2013-09-09 19:50:00,
2013-09-09 15:56:00,75.9,54.8,30.04,SE,124,3.0,5.0,48,0.00,,,0.00,Wunderground v.1.15,2013-09-09 19:56:00,
2013-09-09 16:01:00,75.8,55.3,30.04,SE,125,3.0,3.0,49,0.00,,,0.00,Wunderground v.1.15,2013-09-09 20:01:00,
2013-09-09 16:07:00,75.9,55.9,30.04,SW,219,3.0,3.0,50,0.00,,,0.00,Wunderground v.1.15,2013-09-09 20:07:00,
2013-09-09 16:13:00,75.9,55.9,30.04,ESE,118,2.0,5.0,50,0.00,,,0.00,Wunderground v.1.15,2013-09-09 20:13:00,
2013-09-09 16:18:00,75.7,56.3,30.04,ESE,102,2.0,5.0,51,0.00,,,0.00,Wunderground v.1.15,2013-09-09 20:18:00,
2013-09-09 16:24:00,75.5,56.1,30.03,ESE,123,3.0,6.0,51,0.00,,,0.00,Wunderground v.1.15,2013-09-09 20:24:00,
2013-09-09 16:29:00,75.4,56.5,30.03,SW,226,3.0,6.0,52,0.00,,,0.00,Wunderground v.1.15,2013-09-09 20:29:00,
2013-09-09 16:34:00,76.1,56.7,30.03,ENE,64,3.0,3.0,51,0.00,,,0.00,Wunderground v.1.15,2013-09-09 20:34:00,
2013-09-09 16:39:00,76.2,56.7,30.03,ESE,117,3.0,7.0,51,0.00,,,0.00,Wunderground v.1.15,2013-09-09 20:39:00,
2013-09-09 16:45:00,76.1,56.7,30.02,ESE,111,3.0,5.0,51,0.00,,,0.00,Wunderground v.1.15,2013-09-09 20:45:00,
2013-09-09 16:50:00,76.2,56.7,30.02,SE,141,3.0,5.0,51,0.00,,,0.00,Wunderground v.1.15,2013-09-09 20:50:00,
2013-09-09 16:56:00,76.2,56.2,30.02,WSW,249,3.0,3.0,50,0.00,,,0.00,Wunderground v.1.15,2013-09-09 20:56:00,
2013-09-09 17:01:00,76.1,56.7,30.02,ENE,73,3.0,3.0,51,0.00,,,0.00,Wunderground v.1.15,2013-09-09 21:01:00,
2013-09-09 17:07:00,75.5,56.1,30.02,SSW,201,2.0,3.0,51,0.00,,,0.00,Wunderground v.1.15,2013-09-09 21:07:00,
2013-09-09 17:12:00,75.9,57.0,30.02,WSW,252,3.0,4.0,52,0.00,,,0.00,Wunderground v.1.15,2013-09-09 21:12:00,
2013-09-09 17:18:00,75.8,55.8,30.02,West,260,3.0,4.0,50,0.00,,,0.00,Wunderground v.1.15,2013-09-09 21:18:00,
2013-09-09 17:23:00,75.8,56.9,30.02,SSW,202,2.0,4.0,52,0.00,,,0.00,Wunderground v.1.15,2013-09-09 21:23:00,
2013-09-09 17:28:00,75.7,56.8,30.02,SW,226,2.0,4.0,52,0.00,,,0.00,Wunderground v.1.15,2013-09-09 21:28:00,
2013-09-09 17:33:00,75.5,56.1,30.02,East,93,2.0,5.0,51,0.00,,,0.00,Wunderground v.1.15,2013-09-09 21:33:00,
2013-09-09 17:39:00,74.9,56.6,30.02,SSE,160,2.0,5.0,53,0.00,,,0.00,Wunderground v.1.15,2013-09-09 21:39:00,
2013-09-09 17:45:00,74.5,57.3,30.02,SE,127,1.0,2.0,55,0.00,,,0.00,Wunderground v.1.15,2013-09-09 21:45:00,
2013-09-09 17:51:00,74.1,56.9,30.01,SE,131,2.0,2.0,55,0.00,,,0.00,Wunderground v.1.15,2013-09-09 21:51:00,
2013-09-09 17:56:00,73.8,57.1,30.01,ESE,122,2.0,2.0,56,0.00,,,0.00,Wunderground v.1.15,2013-09-09 21:56:00,
2013-09-09 18:01:00,73.5,56.8,30.01,SE,146,1.0,1.0,56,0.00,,,0.00,Wunderground v.1.15,2013-09-09 22:01:00,
2013-09-09 18:07:00,73.3,57.1,30.01,ESE,122,1.0,5.0,57,0.00,,,0.00,Wunderground v.1.15,2013-09-09 22:07:00,
2013-09-09 18:12:00,73.2,57.5,30.01,ESE,115,1.0,1.0,58,0.00,,,0.00,Wunderground v.1.15,2013-09-09 22:12:00,
2013-09-09 18:18:00,72.9,57.3,30.01,ESE,118,1.0,2.0,58,0.00,,,0.00,Wunderground v.1.15,2013-09-09 22:18:00,
2013-09-09 18:23:00,72.8,57.2,30.00,ESE,112,1.0,2.0,58,0.00,,,0.00,Wunderground v.1.15,2013-09-09 22:23:00,
2013-09-09 18:28:00,72.5,57.4,30.01,ESE,111,1.0,4.0,59,0.00,,,0.00,Wunderground v.1.15,2013-09-09 22:28:00,
2013-09-09 18:34:00,72.3,56.7,30.01,ESE,120,2.0,3.0,58,0.00,,,0.00,Wunderground v.1.15,2013-09-09 22:34:00,
2013-09-09 18:40:00,72.3,57.2,30.01,East,87,1.0,3.0,59,0.00,,,0.00,Wunderground v.1.15,2013-09-09 22:40:00,
2013-09-09 18:45:00,72.1,57.0,30.01,ESE,122,1.0,3.0,59,0.00,,,0.00,Wunderground v.1.15,2013-09-09 22:45:00,
2013-09-09 18:51:00,72.0,56.9,30.01,ESE,119,1.0,1.0,59,0.00,,,0.00,Wunderground v.1.15,2013-09-09 22:51:00,
2013-09-09 18:56:00,71.8,57.2,30.01,ESE,120,1.0,3.0,60,0.00,,,0.00,Wunderground v.1.15,2013-09-09 22:56:00,
2013-09-09 19:01:00,71.6,57.0,30.01,ESE,102,1.0,1.0,60,0.00,,,0.00,Wunderground v.1.15,2013-09-09 23:01:00,
2013-09-09 19:07:00,71.4,56.8,30.01,ESE,105,1.0,3.0,60,0.00,,,0.00,Wunderground v.1.15,2013-09-09 23:07:00,
2013-09-09 19:13:00,71.2,56.6,30.00,ESE,118,2.0,3.0,60,0.00,,,0.00,Wunderground v.1.15,2013-09-09 23:13:00,
2013-09-09 19:19:00,71.0,56.9,30.00,ESE,110,2.0,4.0,61,0.00,,,0.00,Wunderground v.1.15,2013-09-09 23:19:00,
2013-09-09 19:25:00,70.8,56.7,30.00,East,91,2.0,3.0,61,0.00,,,0.00,Wunderground v.1.15,2013-09-09 23:25:00,
2013-09-09 19:31:00,70.7,56.6,30.00,SE,130,2.0,5.0,61,0.00,,,0.00,Wunderground v.1.15,2013-09-09 23:31:00,
2013-09-09 19:36:00,70.6,56.9,30.00,East,97,2.0,3.0,62,0.00,,,0.00,Wunderground v.1.15,2013-09-09 23:36:00,
2013-09-09 19:42:00,70.4,56.8,30.00,ESE,103,3.0,4.0,62,0.00,,,0.00,Wunderground v.1.15,2013-09-09 23:42:00,
2013-09-09 19:47:00,70.2,56.6,29.99,ESE,108,3.0,6.0,62,0.00,,,0.00,Wunderground v.1.15,2013-09-09 23:47:00,
2013-09-09 19:53:00,69.9,56.3,29.99,ESE,106,3.0,4.0,62,0.00,,,0.00,Wunderground v.1.15,2013-09-09 23:53:00,
2013-09-09 19:59:00,69.7,56.5,29.99,ESE,105,3.0,4.0,63,0.00,,,0.00,Wunderground v.1.15,2013-09-09 23:59:00,
2013-09-09 20:05:00,69.6,56.4,29.99,East,101,3.0,4.0,63,0.00,,,0.00,Wunderground v.1.15,2013-09-10 00:05:00,
2013-09-09 20:10:00,69.4,56.3,29.99,ESE,113,3.0,5.0,63,0.00,,,0.00,Wunderground v.1.15,2013-09-10 00:10:00,
2013-09-09 20:16:00,69.4,56.3,30.00,SSE,157,3.0,5.0,63,0.00,,,0.00,Wunderground v.1.15,2013-09-10 00:16:00,
2013-09-09 20:21:00,69.4,56.3,30.00,SSE,149,3.0,3.0,63,0.00,,,0.00,Wunderground v.1.15,2013-09-10 00:21:00,
2013-09-09 20:27:00,69.3,56.2,30.00,SE,125,3.0,7.0,63,0.00,,,0.00,Wunderground v.1.15,2013-09-10 00:27:00,
2013-09-09 20:32:00,69.2,56.1,30.00,ESE,122,3.0,3.0,63,0.00,,,0.00,Wunderground v.1.15,2013-09-10 00:32:00,
2013-09-09 20:38:00,69.2,56.1,30.00,ESE,115,3.0,8.0,63,0.00,,,0.00,Wunderground v.1.15,2013-09-10 00:38:00,
2013-09-09 20:43:00,69.2,56.1,29.99,South,179,4.0,4.0,63,0.00,,,0.00,Wunderground v.1.15,2013-09-10 00:43:00,
2013-09-09 20:48:00,69.1,56.4,29.99,SSE,148,4.0,6.0,64,0.00,,,0.00,Wunderground v.1.15,2013-09-10 00:48:00,
2013-09-09 20:54:00,69.1,56.4,29.99,SW,215,4.0,5.0,64,0.00,,,0.00,Wunderground v.1.15,2013-09-10 00:54:00,
2013-09-09 20:59:00,69.0,56.3,29.99,ESE,119,3.0,5.0,64,0.00,,,0.00,Wunderground v.1.15,2013-09-10 00:59:00,
2013-09-09 21:05:00,68.9,56.2,29.99,ESE,113,3.0,6.0,64,0.00,,,0.00,Wunderground v.1.15,2013-09-10 01:05:00,
2013-09-09 21:10:00,68.8,56.6,29.99,ESE,119,3.0,6.0,65,0.00,,,0.00,Wunderground v.1.15,2013-09-10 01:10:00,
2013-09-09 21:16:00,68.8,56.6,29.99,SW,222,4.0,5.0,65,0.00,,,0.00,Wunderground v.1.15,2013-09-10 01:16:00,
2013-09-09 21:21:00,68.7,56.5,29.99,ESE,112,3.0,5.0,65,0.00,,,0.00,Wunderground v.1.15,2013-09-10 01:21:00,
2013-09-09 21:27:00,68.7,56.5,29.99,WSW,256,3.0,6.0,65,0.00,,,0.00,Wunderground v.1.15,2013-09-10 01:27:00,
2013-09-09 21:32:00,68.7,56.5,29.99,SE,134,4.0,5.0,65,0.00,,,0.00,Wunderground v.1.15,2013-09-10 01:32:00,
2013-09-09 21:37:00,68.6,56.8,29.99,ESE,123,3.0,5.0,66,0.00,,,0.00,Wunderground v.1.15,2013-09-10 01:37:00,
2013-09-09 21:43:00,68.7,56.5,29.99,East,101,4.0,4.0,65,0.00,,,0.00,Wunderground v.1.15,2013-09-10 01:43:00,
2013-09-09 21:48:00,68.7,56.5,29.98,SE,127,4.0,7.0,65,0.00,,,0.00,Wunderground v.1.15,2013-09-10 01:48:00,
2013-09-09 21:53:00,68.6,56.8,29.98,East,80,3.0,3.0,66,0.00,,,0.00,Wunderground v.1.15,2013-09-10 01:53:00,
2013-09-09 21:59:00,68.5,56.7,29.98,ESE,118,3.0,5.0,66,0.00,,,0.00,Wunderground v.1.15,2013-09-10 01:59:00,
2013-09-09 22:04:00,68.5,56.7,29.98,East,81,3.0,5.0,66,0.00,,,0.00,Wunderground v.1.15,2013-09-10 02:04:00,
2013-09-09 22:09:00,68.4,56.6,29.99,SE,126,3.0,6.0,66,0.00,,,0.00,Wunderground v.1.15,2013-09-10 02:09:00,
2013-09-09 22:15:00,68.4,56.6,29.99,ESE,120,3.0,4.0,66,0.00,,,0.00,Wunderground v.1.15,2013-09-10 02:15:00,
2013-09-09 22:20:00,68.3,56.5,29.99,East,85,3.0,4.0,66,0.00,,,0.00,Wunderground v.1.15,2013-09-10 02:20:00,
2013-09-09 22:25:00,68.3,56.9,29.99,ESE,117,2.0,4.0,67,0.00,,,0.00,Wunderground v.1.15,2013-09-10 02:25:00,
2013-09-09 22:30:00,68.2,56.8,29.99,SE,133,2.0,6.0,67,0.00,,,0.00,Wunderground v.1.15,2013-09-10 02:30:00,
2013-09-09 22:36:00,68.1,56.7,29.98,ESE,106,2.0,3.0,67,0.00,,,0.00,Wunderground v.1.15,2013-09-10 02:36:00,
2013-09-09 22:42:00,67.9,56.9,29.98,SSE,165,3.0,3.0,68,0.00,,,0.00,Wunderground v.1.15,2013-09-10 02:42:00,
2013-09-09 22:47:00,67.8,56.9,29.99,East,87,2.0,5.0,68,0.00,,,0.00,Wunderground v.1.15,2013-09-10 02:47:00,
2013-09-09 22:53:00,67.7,56.8,29.99,SSE,163,2.0,5.0,68,0.00,,,0.00,Wunderground v.1.15,2013-09-10 02:53:00,
2013-09-09 22:58:00,67.7,57.2,30.00,ESE,106,2.0,5.0,69,0.00,,,0.00,Wunderground v.1.15,2013-09-10 02:58:00,
2013-09-09 23:04:00,67.5,57.0,29.99,ESE,115,2.0,2.0,69,0.00,,,0.00,Wunderground v.1.15,2013-09-10 03:04:00,
2013-09-09 23:09:00,67.4,56.9,29.98,SE,142,2.0,4.0,69,0.00,,,0.00,Wunderground v.1.15,2013-09-10 03:09:00,
2013-09-09 23:15:00,67.3,57.2,29.99,SSE,152,1.0,2.0,70,0.00,,,0.00,Wunderground v.1.15,2013-09-10 03:15:00,
2013-09-09 23:21:00,67.3,57.2,29.99,NE,37,0.0,3.0,70,0.00,,,0.00,Wunderground v.1.15,2013-09-10 03:21:00,
2013-09-09 23:26:00,67.2,57.1,29.99,ENE,76,1.0,3.0,70,0.00,,,0.00,Wunderground v.1.15,2013-09-10 03:26:00,
2013-09-09 23:31:00,67.0,57.3,29.99,East,84,1.0,1.0,71,0.00,,,0.00,Wunderground v.1.15,2013-09-10 03:31:00,
2013-09-09 23:37:00,66.9,57.2,29.99,ENE,61,1.0,1.0,71,0.00,,,0.00,Wunderground v.1.15,2013-09-10 03:37:00,
2013-09-09 23:42:00,66.8,57.5,29.99,West,260,1.0,2.0,72,0.00,,,0.00,Wunderground v.1.15,2013-09-10 03:42:00,
2013-09-09 23:48:00,66.9,57.2,29.99,SW,229,1.0,2.0,71,0.00,,,0.00,Wunderground v.1.15,2013-09-10 03:48:00,
2013-09-09 23:53:00,66.9,57.6,29.98,East,101,1.0,1.0,72,0.00,,,0.00,Wunderground v.1.15,2013-09-10 03:53:00,
2013-09-09 23:58:00,66.9,57.6,29.98,ENE,75,1.0,2.0,72,0.00,,,0.00,Wunderground v.1.15,2013-09-10 03:58:00,